{"data":{"norad_id":52536,"epoch":"2026-05-25T03:32:19.348224Z","epoch_age_seconds":62607,"freshness":"FRESH","line1":"1 52536U 22051D   26145.14744616  .00003796  00000+0  25647-3 0  9993","line2":"2 52536  53.2135 145.8864 0001105  80.9067 279.2050 15.08842335222982","mean_motion":15.08842335,"eccentricity":0.0001105,"inclination_deg":53.2135,"raan_deg":145.8864,"arg_perigee_deg":80.9067,"mean_anomaly_deg":279.205,"bstar":0.00025647,"rev_number":22298,"period_min":95.437406983944,"perigee_km":538.97182681811,"apogee_km":540.50067680676,"semimajor_km":6917.8732518124,"source":"CELESTRAK","updated_at":"2026-05-25T13:38:17.161417Z"}}